This demonstration page uses our WeatherBlox Daily Observations layout. Learn more.

Left ArrowRight Arrow

39.51506, -84.39828

Hourly Observations for May 14, 2020

Temp ( °F °C ) Dew Point ( °F °C ) Humidity (%) Winds ( mph kmh ) Pressure ( in mb ) Visibility ( mi km ) Precip ( " mm )
12:15 am 00:15 Cloudy 56 13.2 49 9.5 78 78 S 8 13 30.18 1022 N/A 0 0
12:35 am 00:35 Cloudy 56 13.1 50 10 82 82 SSW 7 11 30.18 1022 N/A 0 0
12:55 am 00:55 Cloudy 56 13.1 50 10.2 83 83 SSW 9 15 30.18 1022 N/A 0 0
1:15 am 01:15 Cloudy 55 12.9 51 10.4 85 85 SSW 5 7 30.19 1022 N/A 0 0
1:35 am 01:35 Cloudy 55 12.9 51 10.7 87 87 SSW 7 11 30.19 1022 N/A 0 0
1:55 am 01:55 Cloudy 55 12.8 51 10.8 88 88 SSW 6 9 30.18 1022 N/A 0 0
2:15 am 02:15 Cloudy 55 12.7 52 11 89 89 SW 7 11 30.17 1022 N/A 0 0
2:35 am 02:35 Cloudy 55 12.6 52 11.2 91 91 SSW 8 13 30.17 1022 N/A 0 0
2:55 am 02:55 Cloudy 55 12.7 52 11.2 91 91 SSW 3 6 30.16 1021 N/A 0 0
3:15 am 03:15 Cloudy 55 12.7 52 11.3 91 91 SW 5 7 30.15 1021 N/A 0 0
3:35 am 03:35 Cloudy 55 12.7 52 11.3 91 91 S 3 6 30.14 1021 N/A 0 0
3:55 am 03:55 Cloudy 55 12.8 52 11.3 91 91 S 5 7 30.15 1021 N/A 0 0
4:15 am 04:15 undefined 55 12.8 52 11.3 91 91 SSW 7 11 30.15 1021 N/A 0 0
4:35 am 04:35 undefined 55 12.6 52 11.2 91 91 Calm 30.15 1021 N/A 0 0
4:55 am 04:55 Mostly Cloudy 55 12.5 52 11.1 91 91 S 3 6 30.14 1021 N/A 0 0
5:15 am 05:15 undefined 55 12.8 52 11.3 91 91 Calm 30.14 1021 N/A 0 0
5:35 am 05:35 undefined 55 12.6 52 11.2 91 91 Calm 30.13 1020 N/A 0 0
5:55 am 05:55 undefined 54 12.4 52 11.2 92 92 Calm 30.14 1021 N/A 0 0
6:15 am 06:15 undefined 55 12.6 52 11.3 92 92 Calm 30.14 1021 N/A 0 0
6:35 am 06:35 Cloudy 55 12.8 53 11.4 91 91 Calm 30.14 1021 N/A 0 0
6:55 am 06:55 Cloudy 55 12.9 53 11.5 91 91 SSW 5 7 30.15 1021 N/A 0 0
7:15 am 07:15 undefined 56 13.1 53 11.6 91 91 SSW 6 9 30.15 1021 N/A 0 0
7:35 am 07:35 Cloudy 56 13.2 53 11.6 90 90 Calm 30.15 1021 N/A 0 0
7:55 am 07:55 undefined 56 13.1 53 11.8 92 92 SSW 3 6 30.15 1021 N/A 0 0
8:15 am 08:15 Mostly Cloudy 56 13.5 54 12 91 91 Calm 30.14 1021 N/A 0 0
8:35 am 08:35 undefined 57 14 54 12.3 90 90 SSW 5 7 30.14 1021 N/A 0 0
8:55 am 08:55 undefined 59 15 55 12.5 85 85 SW 8 13 30.13 1020 N/A 0 0
9:15 am 09:15 Sunny 61 16.1 55 12.8 81 81 SW 10 17 30.13 1020 N/A 0 0
9:35 am 09:35 Mostly Cloudy 62 16.5 55 12.8 79 79 SW 8 13 30.13 1020 N/A 0 0
9:55 am 09:55 Cloudy with Nearby Thunderstorms 61 16.3 56 13.5 84 84 WSW 10 17 30.13 1020 N/A 0 0
10:15 am 10:15 Cloudy 62 16.7 57 13.7 83 83 WSW 7 11 30.12 1020 N/A 0 0
10:35 am 10:35 undefined 62 16.9 58 14.3 85 85 SW 9 15 30.11 1020 N/A 0 0
10:55 am 10:55 Partly Cloudy 67 19.5 60 15.6 78 78 WSW 15 24 30.11 1019 N/A 0 0
11:15 am 11:15 Mostly Cloudy 65 18.6 58 14.4 77 77 WSW 18 30 30.11 1020 N/A 0 0
11:35 am 11:35 undefined 62 16.7 58 14.7 88 88 SW 21 33 30.11 1020 N/A 0 0
11:55 am 11:55 Cloudy 61 15.9 59 15.1 95 95 SW 12 19 30.1 1019 N/A 0 0
12:15 pm 12:15 undefined 61 16.3 60 15.7 96 96 SW 9 15 30.08 1019 N/A 0 0
12:35 pm 12:35 undefined 63 17.2 62 16.5 96 96 SSW 9 15 30.08 1019 N/A 0 0
12:55 pm 12:55 Mostly Cloudy 64 18 62 16.8 93 93 SSW 10 17 30.07 1018 N/A 0 0
1:15 pm 13:15 Mostly Cloudy 66 18.8 62 16.9 89 89 SW 10 17 30.07 1018 N/A 0 0
1:35 pm 13:35 Mostly Cloudy 68 19.9 63 17.2 85 85 WSW 12 19 30.06 1018 N/A 0 0
1:55 pm 13:55 Partly Cloudy 70 21.2 63 17 77 77 SW 16 26 30.05 1018 N/A 0 0
2:15 pm 14:15 Sunny 72 22.1 64 17.5 75 75 SW 16 26 30.04 1017 N/A 0 0
2:35 pm 14:35 Sunny 73 22.8 63 17.3 71 71 SW 13 20 30.03 1017 N/A 0 0
2:55 pm 14:55 Sunny 76 24.5 65 18.2 68 68 SW 13 20 30.01 1016 N/A 0 0
3:15 pm 15:15 Partly Cloudy 79 25.9 64 18 62 62 WSW 18 30 30 1016 N/A 0 0
3:35 pm 15:35 Sunny 78 25.5 63 17.4 61 61 WSW 18 30 30 1016 N/A 0 0
3:55 pm 15:55 Partly Cloudy 78 25.5 62 16.4 57 57 WSW 16 26 30 1016 N/A 0 0
4:15 pm 16:15 Partly Cloudy 77 25 62 16.6 60 60 WSW 13 20 30 1016 N/A 0 0
4:35 pm 16:35 Partly Cloudy 79 25.9 62 16.9 58 58 WSW 14 22 29.98 1015 N/A 0 0
4:55 pm 16:55 Partly Cloudy 78 25.6 63 17 59 59 W 13 20 29.99 1016 N/A 0 0
5:15 pm 17:15 Mostly Cloudy 77 25.1 61 16.2 58 58 NW 24 39 30.02 1017 N/A 0 0
5:35 pm 17:35 Cloudy 67 19.3 59 15.2 77 77 NW 12 19 30.03 1017 N/A 0 0
5:55 pm 17:55 Mostly Cloudy 65 18.5 61 16 85 85 NNW 8 13 30.01 1016 N/A 0 0
6:15 pm 18:15 Sunny 67 19.6 62 16.6 83 83 WSW 5 7 30 1016 N/A 0 0
6:35 pm 18:35 Sunny 67 19.6 62 16.8 84 84 Calm 30 1016 N/A 0 0
6:55 pm 18:55 Sunny 69 20.6 63 17 80 80 SSW 5 7 29.97 1015 N/A 0 0
7:15 pm 19:15 Sunny 69 20.8 62 16.4 76 76 SSW 9 15 29.96 1015 N/A 0 0
7:35 pm 19:35 Sunny 69 20.7 61 16.1 75 75 SSW 5 7 29.95 1014 N/A 0 0
7:55 pm 19:55 Sunny 69 20.3 62 16.4 78 78 Calm 29.96 1015 N/A 0 0
8:15 pm 20:15 Sunny 67 19.7 61 16.3 81 81 Calm 29.97 1015 N/A 0 0
8:35 pm 20:35 undefined 64 17.9 62 16.6 92 92 Calm 29.97 1015 N/A 0 0
8:55 pm 20:55 undefined 63 17 62 16.5 97 97 Calm 29.97 1015 N/A 0 0
9:15 pm 21:15 undefined 61 16 61 15.9 99 99 Calm 29.97 1015 N/A 0 0
9:35 pm 21:35 undefined 60 15.3 60 15.3 100 100 Calm 29.98 1015 N/A 0 0
9:55 pm 21:55 undefined 59 15.2 59 15.2 100 100 Calm 29.98 1015 N/A 0 0
10:15 pm 22:15 undefined 59 14.9 59 14.9 100 100 Calm 29.98 1015 N/A 0 0
10:35 pm 22:35 undefined 59 15 59 15 100 100 Calm 29.98 1015 N/A 0 0
10:55 pm 22:55 undefined 57 14 N/A N/A Calm 29.97 1015 N/A 0 0
11:15 pm 23:15 undefined 57 14 N/A N/A Calm 29.97 1015 N/A 0 0
11:35 pm 23:35 undefined 57 14 N/A N/A Calm 29.98 1015 N/A 0 0
11:55 pm 23:55 undefined 57 14 N/A N/A Calm 29.98 1015 N/A 0 0

Powered by AerisWeather